owner,sensor,date,latitude,longitude,vertical_datum,direction_of_sea_water_velocity,sea_water_speed,upward_sea_water_velocity,qcFlag 
TABS,ioos:station:wmo:42045:1,2005-05-01T00:00:00Z,26.2168,-96.4998,2.0,243.813915,45.93431506,-99999.0,'11111222,11111222,99999999' 
TABS,ioos:station:wmo:42045:1,2005-05-01T00:30:00Z,26.2168,-96.4998,2.0,248.232572,43.36172621,-99999.0,'11111222,11111222,99999999' 
TABS,ioos:station:wmo:42045:1,2005-05-01T01:00:00Z,26.2168,-96.4998,2.0,248.7878466,43.66857108,-99999.0,'11111222,11111222,99999999' 
TABS,ioos:station:wmo:42045:1,2005-05-01T01:30:00Z,26.2168,-96.4998,2.0,251.152644,32.10111057,-99999.0,'11111222,11111222,99999999' 
TABS,ioos:station:wmo:42045:1,2005-05-01T02:00:00Z,26.2168,-96.4998,2.0,256.7692827,38.62519385,-99999.0,'11111222,11111222,99999999' 
TABS,ioos:station:wmo:42045:1,2005-05-01T02:30:00Z,26.2168,-96.4998,2.0,254.4019984,40.05507833,-99999.0,'11111222,11111222,99999999' 
TABS,ioos:station:wmo:42045:1,2005-05-01T03:00:00Z,26.2168,-96.4998,2.0,258.8205147,34.3517918,-99999.0,'11111222,11111222,99999999' 
TABS,ioos:station:wmo:42045:1,2005-05-01T03:30:00Z,26.2168,-96.4998,2.0,265.4376054,34.44913932,-99999.0,'11111222,11111222,99999999' 
TABS,ioos:station:wmo:42045:1,2005-05-01T04:00:00Z,26.2168,-96.4998,2.0,261.601603,31.1540511,-99999.0,'11111222,11111222,99999999' 
TABS,ioos:station:wmo:42045:1,2005-05-01T04:30:00Z,26.2168,-96.4998,2.0,270.4531924,30.37094829,-99999.0,'11111222,11111222,99999999' 
TABS,ioos:station:wmo:42045:1,2005-05-01T05:00:00Z,26.2168,-96.4998,2.0,275.2915643,29.49568273,-99999.0,'11111222,11111222,99999999' 
TABS,ioos:station:wmo:42045:1,2005-05-01T06:00:00Z,26.2168,-96.4998,2.0,276.9048686,28.03329806,-99999.0,'11111222,11111222,99999999' 
TABS,ioos:station:wmo:42045:1,2005-05-01T06:30:00Z,26.2168,-96.4998,2.0,278.578578,27.48749534,-99999.0,'11111222,11111222,99999999' 
TABS,ioos:station:wmo:42045:1,2005-05-01T07:00:00Z,26.2168,-96.4998,2.0,284.8964624,27.15249528,-99999.0,'11111222,11111222,99999999' 
TABS,ioos:station:wmo:42045:1,2005-05-01T07:30:00Z,26.2168,-96.4998,2.0,294.7396312,21.19526834,-99999.0,'11111222,11111222,99999999' 
TABS,ioos:station:wmo:42045:1,2005-05-01T08:00:00Z,26.2168,-96.4998,2.0,290.742519,22.70142066,-99999.0,'11111222,11111222,99999999' 
TABS,ioos:station:wmo:42045:1,2005-05-01T08:30:00Z,26.2168,-96.4998,2.0,300.1497638,23.89216608,-99999.0,'11111222,11111222,99999999' 
TABS,ioos:station:wmo:42045:1,2005-05-01T09:00:00Z,26.2168,-96.4998,2.0,303.3646728,22.92890316,-99999.0,'11111222,11111222,99999999' 
TABS,ioos:station:wmo:42045:1,2005-05-01T09:30:00Z,26.2168,-96.4998,2.0,306.674277,23.97614022,-99999.0,'11111222,11111222,99999999' 
TABS,ioos:station:wmo:42045:1,2005-05-01T10:00:00Z,26.2168,-96.4998,2.0,315.4681079,19.91986195,-99999.0,'11111222,11111222,99999999' 
TABS,ioos:station:wmo:42045:1,2005-05-01T11:00:00Z,26.2168,-96.4998,2.0,331.8654997,18.93765825,-99999.0,'11111222,11111222,99999999' 
TABS,ioos:station:wmo:42045:1,2005-05-01T11:30:00Z,26.2168,-96.4998,2.0,336.4319374,20.95825613,-99999.0,'11111222,11111222,99999999' 
TABS,ioos:station:wmo:42045:1,2005-05-01T12:00:00Z,26.2168,-96.4998,2.0,338.7042085,20.8432555,-99999.0,'11111222,11111222,99999999' 
TABS,ioos:station:wmo:42045:1,2005-05-01T12:30:00Z,26.2168,-96.4998,2.0,337.529661,20.66930091,-99999.0,'11111222,11111222,99999999' 
TABS,ioos:station:wmo:42045:1,2005-05-01T13:00:00Z,26.2168,-96.4998,2.0,341.986454,19.79006822,-99999.0,'11111222,11111222,99999999' 
TABS,ioos:station:wmo:42045:1,2005-05-01T13:30:00Z,26.2168,-96.4998,2.0,337.8310046,20.24677999,-99999.0,'11111222,11111222,99999999' 
TABS,ioos:station:wmo:42045:1,2005-05-01T14:00:00Z,26.2168,-96.4998,2.0,340.3043163,17.38725108,-99999.0,'11111222,11111222,99999999' 
TABS,ioos:station:wmo:42045:1,2005-05-01T14:30:00Z,26.2168,-96.4998,2.0,5.620066397,16.33853115,-99999.0,'11111222,11111222,99999999' 
TABS,ioos:station:wmo:42045:1,2005-05-01T15:00:00Z,26.2168,-96.4998,2.0,5.184288156,15.05156802,-99999.0,'11111222,11111222,99999999' 
TABS,ioos:station:wmo:42045:1,2005-05-01T15:30:00Z,26.2168,-96.4998,2.0,1.769213147,11.98571233,-99999.0,'11111222,11111222,99999999' 
TABS,ioos:station:wmo:42045:1,2005-05-01T16:00:00Z,26.2168,-96.4998,2.0,2.901024757,9.682406726,-99999.0,'11133222,11111222,99999999' 
TABS,ioos:station:wmo:42045:1,2005-05-01T17:00:00Z,26.2168,-96.4998,2.0,20.25341489,7.972954283,-99999.0,'11133222,11111222,99999999' 
TABS,ioos:station:wmo:42045:1,2005-05-01T17:30:00Z,26.2168,-96.4998,2.0,12.02687199,7.054849396,-99999.0,'11133222,11111222,99999999' 
TABS,ioos:station:wmo:42045:1,2005-05-01T18:00:00Z,26.2168,-96.4998,2.0,356.528102,4.458183487,-99999.0,'11133222,11111222,99999999' 
TABS,ioos:station:wmo:42045:1,2005-05-01T18:30:00Z,26.2168,-96.4998,2.0,339.5557556,3.607214992,-99999.0,'11133222,11111222,99999999' 
TABS,ioos:station:wmo:42045:1,2005-05-01T19:00:00Z,26.2168,-96.4998,2.0,314.8655027,3.005212139,-99999.0,'11133222,11111222,99999999' 
TABS,ioos:station:wmo:42045:1,2005-05-01T19:30:00Z,26.2168,-96.4998,2.0,295.2659207,2.366368526,-99999.0,'11133222,11111222,99999999' 
TABS,ioos:station:wmo:42045:1,2005-05-01T20:00:00Z,26.2168,-96.4998,2.0,255.2028514,1.096357606,-99999.0,'11133222,11111222,99999999' 
TABS,ioos:station:wmo:42045:1,2005-05-01T20:30:00Z,26.2168,-96.4998,2.0,225.3127722,2.588049459,-99999.0,'11133222,11111222,99999999' 
TABS,ioos:station:wmo:42045:1,2005-05-01T21:30:00Z,26.2168,-96.4998,2.0,250.4699853,2.482841115,-99999.0,'11133222,11111222,99999999' 
TABS,ioos:station:wmo:42045:1,2005-05-01T22:00:00Z,26.2168,-96.4998,2.0,239.2859367,5.501727002,-99999.0,'11133222,11111222,99999999' 
TABS,ioos:station:wmo:42045:1,2005-05-01T22:30:00Z,26.2168,-96.4998,2.0,240.1435138,6.387800874,-99999.0,'11133222,11111222,99999999' 
TABS,ioos:station:wmo:42045:1,2005-05-01T23:00:00Z,26.2168,-96.4998,2.0,222.8685257,8.936940192,-99999.0,'11133222,11111222,99999999' 
TABS,ioos:station:wmo:42045:1,2005-05-01T23:30:00Z,26.2168,-96.4998,2.0,227.0744224,10.3517583,-99999.0,'11111222,11111222,99999999' 
TABS,ioos:station:wmo:42045:1,2005-05-02T00:00:00Z,26.2168,-96.4998,2.0,226.3097514,10.20621869,-99999.0,'11111222,11111222,99999999' 
TABS,ioos:station:wmo:42045:1,2005-05-02T00:30:00Z,26.2168,-96.4998,2.0,230.2184537,12.04955186,-99999.0,'11111222,11111222,99999999' 
TABS,ioos:station:wmo:42045:1,2005-05-02T01:00:00Z,26.2168,-96.4998,2.0,239.2313789,10.55579935,-99999.0,'11111222,11111222,99999999' 
TABS,ioos:station:wmo:42045:1,2005-05-02T01:30:00Z,26.2168,-96.4998,2.0,238.4443009,6.477846865,-99999.0,'11133222,11111222,99999999' 
TABS,ioos:station:wmo:42045:1,2005-05-02T02:00:00Z,26.2168,-96.4998,2.0,241.7704768,13.55181538,-99999.0,'11111222,11111222,99999999' 
TABS,ioos:station:wmo:42045:1,2005-05-02T02:30:00Z,26.2168,-96.4998,2.0,241.479866,13.11098776,-99999.0,'11111222,11111222,99999999' 
TABS,ioos:station:wmo:42045:1,2005-05-02T03:00:00Z,26.2168,-96.4998,2.0,243.8249538,14.44086216,-99999.0,'11111222,11111222,99999999' 
TABS,ioos:station:wmo:42045:1,2005-05-02T03:30:00Z,26.2168,-96.4998,2.0,244.0346177,14.09247317,-99999.0,'11111222,11111222,99999999' 
TABS,ioos:station:wmo:42045:1,2005-05-02T04:00:00Z,26.2168,-96.4998,2.0,249.7676632,15.93306625,-99999.0,'11111222,11111222,99999999' 
TABS,ioos:station:wmo:42045:1,2005-05-02T04:30:00Z,26.2168,-96.4998,2.0,251.3878676,17.42107058,-99999.0,'11111222,11111222,99999999' 
TABS,ioos:station:wmo:42045:1,2005-05-02T05:00:00Z,26.2168,-96.4998,2.0,252.1898987,19.12659405,-99999.0,'11111222,11111222,99999999' 
TABS,ioos:station:wmo:42045:1,2005-05-02T05:30:00Z,26.2168,-96.4998,2.0,255.9419602,19.47318669,-99999.0,'11111222,11111222,99999999' 
TABS,ioos:station:wmo:42045:1,2005-05-02T06:00:00Z,26.2168,-96.4998,2.0,259.7185753,21.51544794,-99999.0,'11111222,11111222,99999999' 
TABS,ioos:station:wmo:42045:1,2005-05-02T06:30:00Z,26.2168,-96.4998,2.0,267.8101624,21.72586017,-99999.0,'11111222,11111222,99999999' 
TABS,ioos:station:wmo:42045:1,2005-05-02T07:00:00Z,26.2168,-96.4998,2.0,273.3608518,22.34842724,-99999.0,'11111222,11111222,99999999' 
TABS,ioos:station:wmo:42045:1,2005-05-02T07:30:00Z,26.2168,-96.4998,2.0,281.1234534,27.05828709,-99999.0,'11111222,11111222,99999999' 
TABS,ioos:station:wmo:42045:1,2005-05-02T08:00:00Z,26.2168,-96.4998,2.0,287.5909513,28.75455094,-99999.0,'11111222,11111222,99999999' 
TABS,ioos:station:wmo:42045:1,2005-05-02T08:30:00Z,26.2168,-96.4998,2.0,289.1999784,31.98928727,-99999.0,'11111222,11111222,99999999' 
TABS,ioos:station:wmo:42045:1,2005-05-02T09:00:00Z,26.2168,-96.4998,2.0,304.7106417,33.4897865,-99999.0,'11111222,11111222,99999999' 
TABS,ioos:station:wmo:42045:1,2005-05-02T09:30:00Z,26.2168,-96.4998,2.0,307.2324725,33.84867649,-99999.0,'11111222,11111222,99999999' 
TABS,ioos:station:wmo:42045:1,2005-05-02T10:00:00Z,26.2168,-96.4998,2.0,312.4257416,33.52949299,-99999.0,'11111222,11111222,99999999' 
TABS,ioos:station:wmo:42045:1,2005-05-02T10:30:00Z,26.2168,-96.4998,2.0,320.5893931,30.85633971,-99999.0,'11111222,11111222,99999999' 
TABS,ioos:station:wmo:42045:1,2005-05-02T11:00:00Z,26.2168,-96.4998,2.0,324.7519208,31.31053816,-99999.0,'11111222,11111222,99999999' 
TABS,ioos:station:wmo:42045:1,2005-05-02T11:30:00Z,26.2168,-96.4998,2.0,326.611775,24.7677068,-99999.0,'11111222,11111222,99999999' 
TABS,ioos:station:wmo:42045:1,2005-05-02T12:00:00Z,26.2168,-96.4998,2.0,330.4137542,34.10720159,-99999.0,'11111222,11111222,99999999' 
TABS,ioos:station:wmo:42045:1,2005-05-02T12:30:00Z,26.2168,-96.4998,2.0,332.5949455,33.54462699,-99999.0,'11111222,11111222,99999999' 
TABS,ioos:station:wmo:42045:1,2005-05-02T13:00:00Z,26.2168,-96.4998,2.0,338.6923451,32.5554573,-99999.0,'11111222,11111222,99999999' 
TABS,ioos:station:wmo:42045:1,2005-05-02T13:30:00Z,26.2168,-96.4998,2.0,341.9576638,35.09578037,-99999.0,'11111222,11111222,99999999' 
TABS,ioos:station:wmo:42045:1,2005-05-02T14:00:00Z,26.2168,-96.4998,2.0,345.6055374,35.27749708,-99999.0,'11111222,11111222,99999999' 
TABS,ioos:station:wmo:42045:1,2005-05-02T14:30:00Z,26.2168,-96.4998,2.0,351.4229619,35.33520199,-99999.0,'11111222,11111222,99999999' 
TABS,ioos:station:wmo:42045:1,2005-05-02T15:30:00Z,26.2168,-96.4998,2.0,0.968453421,38.46549233,-99999.0,'11111222,11111222,99999999' 
TABS,ioos:station:wmo:42045:1,2005-05-02T16:00:00Z,26.2168,-96.4998,2.0,8.733829377,38.26367076,-99999.0,'11111222,11111222,99999999' 
TABS,ioos:station:wmo:42045:1,2005-05-02T16:30:00Z,26.2168,-96.4998,2.0,12.91677904,37.98105449,-99999.0,'11111222,11111222,99999999' 
TABS,ioos:station:wmo:42045:1,2005-05-02T17:00:00Z,26.2168,-96.4998,2.0,21.19391066,35.54408671,-99999.0,'11111222,11111222,99999999' 
TABS,ioos:station:wmo:42045:1,2005-05-02T17:30:00Z,26.2168,-96.4998,2.0,24.67948107,34.24827587,-99999.0,'11111222,11111222,99999999' 
TABS,ioos:station:wmo:42045:1,2005-05-02T18:00:00Z,26.2168,-96.4998,2.0,27.81122538,33.5221136,-99999.0,'11111222,11111222,99999999' 
TABS,ioos:station:wmo:42045:1,2005-05-02T18:30:00Z,26.2168,-96.4998,2.0,30.76533291,33.15602057,-99999.0,'11111222,11111222,99999999' 
TABS,ioos:station:wmo:42045:1,2005-05-02T19:00:00Z,26.2168,-96.4998,2.0,32.85429511,32.12888109,-99999.0,'11111222,11111222,99999999' 
TABS,ioos:station:wmo:42045:1,2005-05-02T19:30:00Z,26.2168,-96.4998,2.0,32.18837472,33.54592375,-99999.0,'11111222,11111222,99999999' 
TABS,ioos:station:wmo:42045:1,2005-05-02T20:00:00Z,26.2168,-96.4998,2.0,39.49372871,31.98152592,-99999.0,'11111222,11111222,99999999' 
TABS,ioos:station:wmo:42045:1,2005-05-02T20:30:00Z,26.2168,-96.4998,2.0,39.02022203,32.78308253,-99999.0,'11111222,11111222,99999999' 
TABS,ioos:station:wmo:42045:1,2005-05-02T21:30:00Z,26.2168,-96.4998,2.0,58.18248319,25.54926613,-99999.0,'11111222,11111222,99999999' 
TABS,ioos:station:wmo:42045:1,2005-05-02T22:00:00Z,26.2168,-96.4998,2.0,61.48370412,24.29778797,-99999.0,'11111222,11111222,99999999' 
TABS,ioos:station:wmo:42045:1,2005-05-02T22:30:00Z,26.2168,-96.4998,2.0,75.17956891,18.96078585,-99999.0,'11111222,11111222,99999999' 
TABS,ioos:station:wmo:42045:1,2005-05-02T23:00:00Z,26.2168,-96.4998,2.0,87.97779082,15.86988343,-99999.0,'11111222,11111222,99999999' 
TABS,ioos:station:wmo:42045:1,2005-05-02T23:30:00Z,26.2168,-96.4998,2.0,94.34112438,13.73941775,-99999.0,'11111222,11111222,99999999' 
TABS,ioos:station:wmo:42045:1,2005-05-03T00:00:00Z,26.2168,-96.4998,2.0,107.3972011,13.44504742,-99999.0,'11111222,11111222,99999999' 
TABS,ioos:station:wmo:42045:1,2005-05-03T00:30:00Z,26.2168,-96.4998,2.0,126.2139446,10.83270973,-99999.0,'11111222,11111222,99999999' 
TABS,ioos:station:wmo:42045:1,2005-05-03T01:00:00Z,26.2168,-96.4998,2.0,143.140752,10.63600019,-99999.0,'11111222,11111222,99999999' 
TABS,ioos:station:wmo:42045:1,2005-05-03T01:30:00Z,26.2168,-96.4998,2.0,168.9784434,3.504639782,-99999.0,'11133222,11111222,99999999' 
TABS,ioos:station:wmo:42045:1,2005-05-03T02:00:00Z,26.2168,-96.4998,2.0,190.8317798,10.11013848,-99999.0,'11111222,11111222,99999999' 
TABS,ioos:station:wmo:42045:1,2005-05-03T02:30:00Z,26.2168,-96.4998,2.0,208.68587,12.08304597,-99999.0,'11111222,11111222,99999999' 
TABS,ioos:station:wmo:42045:1,2005-05-03T03:00:00Z,26.2168,-96.4998,2.0,211.9707833,12.38925744,-99999.0,'11111222,11111222,99999999' 
TABS,ioos:station:wmo:42045:1,2005-05-03T03:30:00Z,26.2168,-96.4998,2.0,216.1813477,13.65298502,-99999.0,'11111222,11111222,99999999' 
TABS,ioos:station:wmo:42045:1,2005-05-03T04:00:00Z,26.2168,-96.4998,2.0,211.8780276,13.86056637,-99999.0,'11111222,11111222,99999999' 
TABS,ioos:station:wmo:42045:1,2005-05-03T04:30:00Z,26.2168,-96.4998,2.0,215.5878872,15.82595969,-99999.0,'11111222,11111222,99999999' 
TABS,ioos:station:wmo:42045:1,2005-05-03T05:00:00Z,26.2168,-96.4998,2.0,220.7970146,17.75369257,-99999.0,'11111222,11111222,99999999' 
TABS,ioos:station:wmo:42045:1,2005-05-03T05:30:00Z,26.2168,-96.4998,2.0,227.1547086,17.67602897,-99999.0,'11111222,11111222,99999999' 
TABS,ioos:station:wmo:42045:1,2005-05-03T06:00:00Z,26.2168,-96.4998,2.0,237.1753875,18.17127954,-99999.0,'11111222,11111222,99999999' 
TABS,ioos:station:wmo:42045:1,2005-05-03T06:30:00Z,26.2168,-96.4998,2.0,241.0150865,20.65732316,-99999.0,'11111222,11111222,99999999' 
TABS,ioos:station:wmo:42045:1,2005-05-03T07:00:00Z,26.2168,-96.4998,2.0,250.3281493,21.83428726,-99999.0,'11111222,11111222,99999999' 
TABS,ioos:station:wmo:42045:1,2005-05-03T07:30:00Z,26.2168,-96.4998,2.0,253.1012968,21.22651644,-99999.0,'11111222,11111222,99999999' 
TABS,ioos:station:wmo:42045:1,2005-05-03T08:00:00Z,26.2168,-96.4998,2.0,259.9804102,23.68114862,-99999.0,'11111222,11111222,99999999' 
TABS,ioos:station:wmo:42045:1,2005-05-03T08:30:00Z,26.2168,-96.4998,2.0,264.8991433,23.73397775,-99999.0,'11111222,11111222,99999999' 
TABS,ioos:station:wmo:42045:1,2005-05-03T09:00:00Z,26.2168,-96.4998,2.0,269.1371793,24.58278463,-99999.0,'11111222,11111222,99999999' 
TABS,ioos:station:wmo:42045:1,2005-05-03T09:30:00Z,26.2168,-96.4998,2.0,273.1814599,26.13026215,-99999.0,'11111222,11111222,99999999' 
TABS,ioos:station:wmo:42045:1,2005-05-03T10:00:00Z,26.2168,-96.4998,2.0,277.4861439,23.64148895,-99999.0,'11111222,11111222,99999999' 
TABS,ioos:station:wmo:42045:1,2005-05-03T10:30:00Z,26.2168,-96.4998,2.0,287.1690392,27.4742534,-99999.0,'11111222,11111222,99999999' 
TABS,ioos:station:wmo:42045:1,2005-05-03T11:00:00Z,26.2168,-96.4998,2.0,285.7525938,27.29507282,-99999.0,'11111222,11111222,99999999' 
TABS,ioos:station:wmo:42045:1,2005-05-03T11:30:00Z,26.2168,-96.4998,2.0,292.100028,27.11188669,-99999.0,'11111222,11111222,99999999' 
TABS,ioos:station:wmo:42045:1,2005-05-03T12:00:00Z,26.2168,-96.4998,2.0,300.616863,33.67436562,-99999.0,'11111222,11111222,99999999' 
TABS,ioos:station:wmo:42045:1,2005-05-03T12:30:00Z,26.2168,-96.4998,2.0,305.1568649,36.52232879,-99999.0,'11111222,11111222,99999999' 
TABS,ioos:station:wmo:42045:1,2005-05-03T13:00:00Z,26.2168,-96.4998,2.0,308.7259958,36.6852409,-99999.0,'11111222,11111222,99999999' 
TABS,ioos:station:wmo:42045:1,2005-05-03T13:30:00Z,26.2168,-96.4998,2.0,312.4291229,35.7802697,-99999.0,'11111222,11111222,99999999' 
TABS,ioos:station:wmo:42045:1,2005-05-03T14:00:00Z,26.2168,-96.4998,2.0,317.0154627,36.79938179,-99999.0,'11111222,11111222,99999999' 
TABS,ioos:station:wmo:42045:1,2005-05-03T14:30:00Z,26.2168,-96.4998,2.0,321.3524796,37.32396817,-99999.0,'11111222,11111222,99999999' 
TABS,ioos:station:wmo:42045:1,2005-05-03T15:00:00Z,26.2168,-96.4998,2.0,326.2758924,37.03179175,-99999.0,'11111222,11111222,99999999' 
TABS,ioos:station:wmo:42045:1,2005-05-03T15:30:00Z,26.2168,-96.4998,2.0,334.3257556,38.84519275,-99999.0,'11111222,11111222,99999999' 
TABS,ioos:station:wmo:42045:1,2005-05-03T16:00:00Z,26.2168,-96.4998,2.0,341.1877442,38.39088433,-99999.0,'11111222,11111222,99999999' 
TABS,ioos:station:wmo:42045:1,2005-05-03T16:30:00Z,26.2168,-96.4998,2.0,347.0641239,38.90746072,-99999.0,'11111222,11111222,99999999' 
TABS,ioos:station:wmo:42045:1,2005-05-03T17:00:00Z,26.2168,-96.4998,2.0,353.0188647,38.09242707,-99999.0,'11111222,11111222,99999999' 
TABS,ioos:station:wmo:42045:1,2005-05-03T17:30:00Z,26.2168,-96.4998,2.0,358.8011046,38.22837166,-99999.0,'11111222,11111222,99999999' 
TABS,ioos:station:wmo:42045:1,2005-05-03T18:00:00Z,26.2168,-96.4998,2.0,0.66001598,36.47241835,-99999.0,'11111222,11111222,99999999' 
TABS,ioos:station:wmo:42045:1,2005-05-03T18:30:00Z,26.2168,-96.4998,2.0,2.143532564,35.29469224,-99999.0,'11111222,11111222,99999999' 
TABS,ioos:station:wmo:42045:1,2005-05-03T19:00:00Z,26.2168,-96.4998,2.0,5.618049446,34.42534677,-99999.0,'11111222,11111222,99999999' 
TABS,ioos:station:wmo:42045:1,2005-05-03T19:30:00Z,26.2168,-96.4998,2.0,6.226985007,32.36091779,-99999.0,'11111222,11111222,99999999' 
TABS,ioos:station:wmo:42045:1,2005-05-03T20:00:00Z,26.2168,-96.4998,2.0,9.58777932,31.58112094,-99999.0,'11111222,11111222,99999999' 
TABS,ioos:station:wmo:42045:1,2005-05-03T20:30:00Z,26.2168,-96.4998,2.0,12.30747192,28.05474113,-99999.0,'11111222,11111222,99999999' 
TABS,ioos:station:wmo:42045:1,2005-05-03T21:00:00Z,26.2168,-96.4998,2.0,19.69830715,27.82848181,-99999.0,'11111222,11111222,99999999' 
TABS,ioos:station:wmo:42045:1,2005-05-03T21:30:00Z,26.2168,-96.4998,2.0,26.99318761,27.54018155,-99999.0,'11111222,11111222,99999999' 
TABS,ioos:station:wmo:42045:1,2005-05-03T22:00:00Z,26.2168,-96.4998,2.0,28.4669288,29.91717901,-99999.0,'11111222,11111222,99999999' 
TABS,ioos:station:wmo:42045:1,2005-05-03T22:30:00Z,26.2168,-96.4998,2.0,26.13333097,26.69941011,-99999.0,'11111222,11111222,99999999' 
TABS,ioos:station:wmo:42045:1,2005-05-03T23:00:00Z,26.2168,-96.4998,2.0,32.47633649,26.31533583,-99999.0,'11111222,11111222,99999999' 
TABS,ioos:station:wmo:42045:1,2005-05-03T23:30:00Z,26.2168,-96.4998,2.0,39.12700203,23.56428017,-99999.0,'11111222,11111222,99999999' 
TABS,ioos:station:wmo:42045:1,2005-05-04T00:00:00Z,26.2168,-96.4998,2.0,53.27877939,20.82207002,-99999.0,'11111222,11111222,99999999' 
TABS,ioos:station:wmo:42045:1,2005-05-04T00:30:00Z,26.2168,-96.4998,2.0,59.48022196,19.25815412,-99999.0,'11111222,11111222,99999999' 
TABS,ioos:station:wmo:42045:1,2005-05-04T01:00:00Z,26.2168,-96.4998,2.0,75.94351847,13.71053974,-99999.0,'11111222,11111222,99999999' 
TABS,ioos:station:wmo:42045:1,2005-05-04T01:30:00Z,26.2168,-96.4998,2.0,89.43047954,10.06049701,-99999.0,'11111222,11111222,99999999' 
TABS,ioos:station:wmo:42045:1,2005-05-04T02:00:00Z,26.2168,-96.4998,2.0,114.5697482,11.30346849,-99999.0,'11111222,11111222,99999999' 
TABS,ioos:station:wmo:42045:1,2005-05-04T02:30:00Z,26.2168,-96.4998,2.0,129.4630254,11.13940752,-99999.0,'11111222,11111222,99999999' 
TABS,ioos:station:wmo:42045:1,2005-05-04T03:00:00Z,26.2168,-96.4998,2.0,144.9583702,14.22924453,-99999.0,'11111222,11111222,99999999' 
TABS,ioos:station:wmo:42045:1,2005-05-04T03:30:00Z,26.2168,-96.4998,2.0,163.3386135,11.54468276,-99999.0,'11111222,11111222,99999999' 
TABS,ioos:station:wmo:42045:1,2005-05-04T04:00:00Z,26.2168,-96.4998,2.0,184.8915503,11.14057898,-99999.0,'11111222,11111222,99999999' 
TABS,ioos:station:wmo:42045:1,2005-05-04T04:30:00Z,26.2168,-96.4998,2.0,198.4664908,11.39685044,-99999.0,'11111222,11111222,99999999' 
TABS,ioos:station:wmo:42045:1,2005-05-04T05:00:00Z,26.2168,-96.4998,2.0,200.5343537,12.51521075,-99999.0,'11111222,11111222,99999999' 
TABS,ioos:station:wmo:42045:1,2005-05-04T05:30:00Z,26.2168,-96.4998,2.0,202.5051655,11.93925458,-99999.0,'11111222,11111222,99999999' 
TABS,ioos:station:wmo:42045:1,2005-05-04T06:00:00Z,26.2168,-96.4998,2.0,203.3188272,13.11097632,-99999.0,'11111222,11111222,99999999' 
TABS,ioos:station:wmo:42045:1,2005-05-04T06:30:00Z,26.2168,-96.4998,2.0,211.9863662,12.96907475,-99999.0,'11111222,11111222,99999999' 
TABS,ioos:station:wmo:42045:1,2005-05-04T07:00:00Z,26.2168,-96.4998,2.0,216.1312295,13.3471083,-99999.0,'11111222,11111222,99999999' 
TABS,ioos:station:wmo:42045:1,2005-05-04T07:30:00Z,26.2168,-96.4998,2.0,225.5040866,13.65476107,-99999.0,'11111222,11111222,99999999' 
TABS,ioos:station:wmo:42045:1,2005-05-04T08:00:00Z,26.2168,-96.4998,2.0,230.6051924,15.34689545,-99999.0,'11111222,11111222,99999999' 
TABS,ioos:station:wmo:42045:1,2005-05-04T08:30:00Z,26.2168,-96.4998,2.0,231.2964883,14.4413919,-99999.0,'11111222,11111222,99999999' 
TABS,ioos:station:wmo:42045:1,2005-05-04T09:00:00Z,26.2168,-96.4998,2.0,240.982797,14.74023745,-99999.0,'11111222,11111222,99999999' 
TABS,ioos:station:wmo:42045:1,2005-05-04T09:30:00Z,26.2168,-96.4998,2.0,236.620601,13.79559712,-99999.0,'11111222,11111222,99999999' 
TABS,ioos:station:wmo:42045:1,2005-05-04T10:00:00Z,26.2168,-96.4998,2.0,242.0952971,16.83771956,-99999.0,'11111222,11111222,99999999' 
TABS,ioos:station:wmo:42045:1,2005-05-04T10:30:00Z,26.2168,-96.4998,2.0,242.6872979,15.43018146,-99999.0,'11111222,11111222,99999999' 
TABS,ioos:station:wmo:42045:1,2005-05-04T11:00:00Z,26.2168,-96.4998,2.0,244.8288437,17.09309217,-99999.0,'11111222,11111222,99999999' 
TABS,ioos:station:wmo:42045:1,2005-05-04T11:30:00Z,26.2168,-96.4998,2.0,254.3041555,17.00402599,-99999.0,'11111222,11111222,99999999' 
TABS,ioos:station:wmo:42045:1,2005-05-04T12:00:00Z,26.2168,-96.4998,2.0,247.3530421,16.49154026,-99999.0,'11111222,11111222,99999999' 
TABS,ioos:station:wmo:42045:1,2005-05-04T12:30:00Z,26.2168,-96.4998,2.0,252.5231188,17.58156136,-99999.0,'11111222,11111222,99999999' 
TABS,ioos:station:wmo:42045:1,2005-05-04T13:00:00Z,26.2168,-96.4998,2.0,255.6172053,14.05034519,-99999.0,'11111222,11111222,99999999' 
TABS,ioos:station:wmo:42045:1,2005-05-04T13:30:00Z,26.2168,-96.4998,2.0,261.0171204,15.11537297,-99999.0,'11111222,11111222,99999999' 
TABS,ioos:station:wmo:42045:1,2005-05-04T14:00:00Z,26.2168,-96.4998,2.0,267.5998652,13.85214785,-99999.0,'11111222,11111222,99999999' 
TABS,ioos:station:wmo:42045:1,2005-05-04T14:30:00Z,26.2168,-96.4998,2.0,270.7696896,15.64140978,-99999.0,'11111222,11111222,99999999' 
TABS,ioos:station:wmo:42045:1,2005-05-04T15:00:00Z,26.2168,-96.4998,2.0,267.9976588,13.16803706,-99999.0,'11111222,11111222,99999999' 
TABS,ioos:station:wmo:42045:1,2005-05-04T15:30:00Z,26.2168,-96.4998,2.0,262.962817,12.08099748,-99999.0,'11111222,11111222,99999999' 
TABS,ioos:station:wmo:42045:1,2005-05-04T16:00:00Z,26.2168,-96.4998,2.0,268.8877501,9.791843545,-99999.0,'11133222,11111222,99999999' 
TABS,ioos:station:wmo:42045:1,2005-05-04T16:30:00Z,26.2168,-96.4998,2.0,272.5203636,8.187917928,-99999.0,'11133222,11111222,99999999' 
TABS,ioos:station:wmo:42045:1,2005-05-04T17:00:00Z,26.2168,-96.4998,2.0,284.0939845,4.845864216,-99999.0,'11133222,11111222,99999999' 
TABS,ioos:station:wmo:42045:1,2005-05-04T17:30:00Z,26.2168,-96.4998,2.0,301.67115,8.894593864,-99999.0,'11133222,11111222,99999999' 
TABS,ioos:station:wmo:42045:1,2005-05-04T18:00:00Z,26.2168,-96.4998,2.0,311.6639868,7.897626226,-99999.0,'11133222,11111222,99999999' 
TABS,ioos:station:wmo:42045:1,2005-05-04T18:30:00Z,26.2168,-96.4998,2.0,352.1337416,8.913882431,-99999.0,'11133222,11111222,99999999' 
TABS,ioos:station:wmo:42045:1,2005-05-04T19:00:00Z,26.2168,-96.4998,2.0,357.1620004,8.280157003,-99999.0,'11133222,11111222,99999999' 